GW0143 Weather Reports


time (UTC)temp
F
wind
direction
speed
knots
gust
knots
rain 1hr
in
rain 24hr
in
rain mn
in
humidity
%
barometer
mb
20260510025522 53 188 3.5 7.0 0.00 0.00 0.00 39 1018.4
20260510024522 54 174 2.6 4.3 0.00 0.00 0.00 36 1018.4
20260510023522 54 199 3.5 7.0 0.00 0.00 0.00 35 1018.1
20260510022522 53 264 3.5 7.0 0.00 0.00 0.00 33 1017.9
20260510021536 53 351 3.5 6.1 0.00 0.00 0.00 39 1017.6
20260510020522 54 75 4.3 5.2 0.00 0.00 0.00 37 1017.2
20260510015523 56 94 2.6 5.2 0.00 0.00 0.00 33 1017.0
20260510014524 57 106 5.2 7.8 0.00 0.00 0.00 30 1016.8
20260510013517 57 107 4.3 9.6 0.00 0.00 0.00 30 1016.7
20260510012517 57 103 5.2 12.2 0.00 0.00 0.00 30 1016.6
20260510011518 58 93 7.0 12.2 0.00 0.00 0.00 28 1016.4
20260510010518 59 90 6.1 12.2 0.00 0.00 0.00 29 1016.3
20260510005521 60 83 11.3 16.5 0.00 0.00 0.00 26 1016.2
20260510004518 61 62 8.7 12.2 0.00 0.00 0.00 23 1016.1
20260510003518 62 46 7.0 12.2 0.00 0.00 0.00 18 1016.0
20260510002518 61 70 11.3 17.4 0.00 0.00 0.00 23 1016.0
20260510001519 63 65 12.2 20.0 0.00 0.00 0.00 20 1015.7
20260510000519 64 6 7.0 12.2 0.00 0.00 0.00 18 1015.6
20260509235519 64 41 5.2 7.8 0.00 0.00 0.00 17 1015.6
20260509234519 65 20 7.0 9.6 0.00 0.00 0.00 16 1015.7
20260509233519 65 11 7.0 10.4 0.00 0.00 0.00 17 1015.7
20260509232519 66 356 9.6 14.8 0.00 0.00 0.00 16 1015.6
20260509231537 65 335 6.1 16.5 0.00 0.00 0.00 15 1015.6
20260509230517 66 334 7.8 12.2 0.00 0.00 0.00 15 1015.7
20260509225558 65 20 5.2 9.6 0.00 0.00 0.00 18 1015.7
20260509224521 64 16 5.2 7.8 0.00 0.00 0.00 17 1015.6
20260509223521 65 36 7.0 9.6 0.00 0.00 0.00 19 1015.7
20260509222518 65 340 6.1 10.4 0.00 0.00 0.00 18 1015.8
20260509221518 65 359 6.1 9.6 0.00 0.00 0.00 17 1015.8
20260509220518 66 351 8.7 14.8 0.00 0.00 0.00 15 1015.7
20260509215539 65 355 6.1 8.7 0.00 0.00 0.00 17 1015.8
20260509214539 65 356 6.1 11.3 0.00 0.00 0.00 17 1015.8
20260509213539 65 360 7.8 15.6 0.00 0.00 0.00 16 1015.9
20260509212519 66 336 8.7 16.5 0.00 0.00 0.00 15 1016.0
20260509211539 67 358 7.8 13.0 0.00 0.00 0.00 15 1016.0
20260509210519 68 354 6.1 10.4 0.00 0.00 0.00 16 1016.3
20260509205520 68 327 7.8 15.6 0.00 0.00 0.00 15 1016.3
20260509204517 67 354 11.3 19.1 0.00 0.00 0.00 14 1016.4
20260509203517 68 347 9.6 22.6 0.00 0.00 0.00 15 1016.5
20260509202520 67 345 11.3 16.5 0.00 0.00 0.00 14 1016.6
20260509201521 67 348 9.6 15.6 0.00 0.00 0.00 15 1016.6
20260509200518 67 352 11.3 20.9 0.00 0.00 0.00 14 1016.7
20260509195538 68 325 7.8 15.6 0.00 0.00 0.00 18 1016.8
20260509194558 67 358 8.7 19.1 0.00 0.00 0.00 18 1016.9
20260509193538 67 350 10.4 15.6 0.00 0.00 0.00 17 1017.0
20260509192519 66 345 8.7 13.9 0.00 0.00 0.00 17 1017.1
20260509191539 65 317 7.0 11.3 0.00 0.00 0.00 20 1017.2
20260509190518 65 360 4.3 13.0 0.00 0.00 0.00 20 1017.4
20260509185539 65 314 7.0 11.3 0.00 0.00 0.00 21 1017.4
20260509184519 64 335 7.0 10.4 0.00 0.00 0.00 21 1017.5
20260509183520 64 318 4.3 8.7 0.00 0.00 0.00 22 1017.6
20260509182516 62 347 5.2 9.6 0.00 0.00 0.00 24 1017.6
20260509181517 62 13 6.1 9.6 0.00 0.00 0.00 26 1017.8
20260509180520 62 354 4.3 7.8 0.00 0.00 0.00 26 1017.8
20260509175520 62 283 5.2 11.3 0.00 0.00 0.00 26 1017.9
20260509174521 62 24 6.1 10.4 0.00 0.00 0.00 26 1017.9
20260509173517 61 38 5.2 12.2 0.00 0.00 0.00 26 1017.8
20260509172521 61 330 4.3 7.8 0.00 0.00 0.00 25 1018.0
20260509171537 61 38 4.3 10.4 0.00 0.00 0.00 26 1018.1
20260509170538 61 30 6.1 12.2 0.00 0.00 0.00 27 1018.1
20260509165521 61 4 5.2 8.7 0.00 0.00 0.00 27 1018.3
20260509164518 60 39 6.1 10.4 0.00 0.00 0.00 26 1018.3
20260509163521 60 20 5.2 7.8 0.00 0.00 0.00 28 1018.2
20260509162518 60 43 4.3 9.6 0.00 0.00 0.00 28 1018.2
20260509161659 59 18 5.2 10.4 0.00 0.00 0.00 28 1018.1
20260509160522 59 43 3.5 7.0 0.00 0.00 0.00 30 1018.2
20260509155522 58 356 2.6 6.1 0.00 0.00 0.00 32 1018.2
20260509154516 57 22 2.6 5.2 0.00 0.00 0.00 36 1018.4
20260509153516 56 43 2.6 7.0 0.00 0.00 0.00 40 1018.5
20260509152523 55 34 4.3 7.8 0.00 0.00 0.00 42 1018.5
20260509151523 54 5 4.3 6.1 0.00 0.00 0.00 46 1018.5
20260509150523 53 21 3.5 7.0 0.00 0.00 0.00 50 1018.6
20260509145523 52 339 3.5 5.2 0.00 0.00 0.00 51 1018.6
20260509144538 52 354 5.2 7.0 0.00 0.00 0.00 49 1018.6
20260509143517 52 354 5.2 7.0 0.00 0.00 0.00 51 1018.6
20260509142518 53 354 4.3 6.1 0.00 0.00 0.00 45 1018.5
20260509141518 53 20 3.5 6.1 0.00 0.00 0.00 46 1018.4
20260509140521 51 325 0.9 2.6 0.00 0.00 0.00 52 1018.4
20260509135542 49 259 0.9 1.7 0.00 0.00 0.00 53 1018.3
20260509134522 48 164 1.7 2.6 0.00 0.00 0.00 53 1018.2
20260509133522 47 165 1.7 3.5 0.00 0.00 0.00 56 1018.3
20260509132522 45 154 1.7 2.6 0.00 0.00 0.00 59 1018.3
20260509131522 42 159 1.7 2.6 0.00 0.00 0.00 66 1018.2
20260509130522 42 300 0.9 2.6 0.00 0.00 0.00 65 1018.2
20260509125522 41 293 0.9 2.6 0.00 0.00 0.00 67 1018.1
20260509124523 39 155 1.7 3.5 0.00 0.00 0.00 66 1018.0
20260509123521 40 249 2.6 4.3 0.00 0.00 0.00 65 1017.8
20260509122521 39 82 3.5 7.0 0.00 0.00 0.00 66 1017.6
20260509121520 39 98 1.7 6.1 0.00 0.00 0.00 65 1017.5
20260509120523 38 229 1.7 2.6 0.00 0.00 0.00 71 1017.4
20260509115521 38 132 3.5 5.2 0.00 0.00 0.00 67 1017.3
20260509114524 37 197 2.6 4.3 0.00 0.00 0.00 73 1017.3
20260509113521 38 100 2.6 5.2 0.00 0.00 0.00 70 1017.3
20260509112521 37 75 1.7 6.1 0.00 0.00 0.00 75 1017.3
20260509111542 37 146 4.3 6.1 0.00 0.00 0.00 76 1017.2
20260509110521 37 143 3.5 4.3 0.00 0.00 0.00 74 1017.2
20260509105525 38 66 1.7 2.6 0.00 0.00 0.00 72 1017.1
20260509104542 35 80 3.5 5.2 0.00 0.00 0.00 78 1017.2
20260509103522 35 196 4.3 6.1 0.00 0.00 0.00 79 1017.2
20260509102522 35 150 4.3 7.0 0.00 0.00 0.00 78 1017.3
20260509101522 34 136 3.5 5.2 0.00 0.00 0.00 80 1017.2
20260509100522 34 197 4.3 6.1 0.00 0.00 0.00 82 1017.2
20260509095543 36 191 3.5 6.1 0.00 0.00 0.00 79 1017.2
20260509094523 36 181 2.6 5.2 0.00 0.00 0.00 79 1017.3
20260509093546 35 201 2.6 4.3 0.00 0.00 0.00 80 1017.4
20260509092526 36 186 1.7 2.6 0.00 0.00 0.00 81 1017.3
20260509091526 36 132 2.6 3.5 0.00 0.00 0.00 80 1017.3
20260509090527 36 116 1.7 1.7 0.00 0.00 0.00 80 1017.5
20260509085538 37 172 3.5 5.2 0.00 0.00 0.00 78 1017.5
20260509084518 36 145 5.2 7.8 0.00 0.00 0.00 79 1017.3
20260509083527 36 101 2.6 3.5 0.00 0.00 0.00 80 1017.4
20260509082527 35 233 2.6 4.3 0.00 0.00 0.00 82 1017.6
20260509081527 35 127 1.7 2.6 0.00 0.00 0.00 83 1017.7
20260509080527 35 155 2.6 3.5 0.00 0.00 0.00 82 1017.8
20260509075529 36 116 1.7 1.7 0.00 0.00 0.00 80 1017.8
20260509074528 37 99 1.7 2.6 0.00 0.00 0.00 80 1017.9
20260509073528 38 96 1.7 2.6 0.00 0.00 0.00 78 1018.0
20260509072520 39 143 3.5 5.2 0.00 0.00 0.00 74 1018.1
20260509071529 39 130 1.7 2.6 0.00 0.00 0.00 76 1018.1
20260509070520 39 142 3.5 5.2 0.00 0.00 0.00 75 1018.2
20260509065520 40 139 4.3 6.1 0.00 0.00 0.00 74 1018.3
20260509064520 41 132 2.6 5.2 0.00 0.00 0.00 71 1018.4
20260509063520 40 142 4.3 5.2 0.00 0.00 0.00 72 1018.4
20260509062529 40 139 1.7 4.3 0.00 0.00 0.00 75 1018.4
20260509061521 41 155 4.3 7.0 0.00 0.00 0.00 73 1018.5
20260509060521 42 143 3.5 7.0 0.00 0.00 0.00 72 1018.5
20260509055521 43 150 4.3 6.1 0.00 0.00 0.00 69 1018.5
20260509054602 44 159 4.3 6.1 0.00 0.00 0.00 67 1018.5
20260509053601 45 155 3.5 5.2 0.00 0.00 0.00 65 1018.4
20260509052521 47 129 3.5 5.2 0.00 0.00 0.00 61 1018.5
20260509051522 48 153 2.6 4.3 0.00 0.00 0.00 59 1018.4
20260509050551 49 184 0.9 2.6 0.00 0.00 0.00 55 1018.4
20260509045522 49 205 5.2 7.8 0.00 0.00 0.00 54 1018.3
20260509044522 49 170 5.2 8.7 0.00 0.00 0.00 57 1018.2
20260509043520 50 210 7.8 12.2 0.00 0.00 0.00 55 1018.3
20260509042519 50 202 8.7 14.8 0.00 0.00 0.00 52 1018.1
20260509041523 50 216 4.3 8.7 0.00 0.00 0.00 57 1018.2
20260509040600 50 199 7.0 13.0 0.00 0.00 0.00 57 1018.3
20260509035517 50 202 7.8 12.2 0.00 0.00 0.00 56 1018.2
20260509034520 49 199 6.1 10.4 0.00 0.00 0.00 60 1018.3
20260509033517 50 149 3.5 5.2 0.00 0.00 0.00 61 1018.1
20260509032532 50 224 3.5 4.3 0.00 0.00 0.00 59 1018.2
20260509031523 51 197 5.2 7.8 0.00 0.00 0.00 56 1018.0
20260509030518 51 188 3.5 5.2 0.00 0.00 0.00 55 1017.9